• In Portugal
  • List of Countries
  • For 7 days
  • Water Temperature
  • Satellite Maps
  • Weather Map
  • Weather Widgets
  • user-avatar
    Login

    Hourly Weather Halhgol

    Today, 23 February, Friday

    Time Temperature Precipitation Wind Pressure Humidity
    00:00 -24°C° 0 mm 1 mps 698 mmHg 96%
    01:00 -25°C° 0 mm 1 mps 698 mmHg 96%
    02:00 -25°C° 0 mm 1 mps 698 mmHg 96%
    03:00 -25°C° 0 mm 1 mps 699 mmHg 96%
    04:00 -27°C° 0 mm 1 mps 699 mmHg 97%
    05:00 -27°C° 0 mm 1 mps 700 mmHg 97%
    06:00 -27°C° 0 mm 1 mps 700 mmHg 97%
    07:00 -28°C° 0 mm 1 mps 701 mmHg 97%
    08:00 -28°C° 0 mm 1 mps 701 mmHg 98%
    09:00 -28°C° 0 mm 2 mps 702 mmHg 96%
    10:00 -26°C° 0 mm 2 mps 703 mmHg 94%
    11:00 -25°C° 0 mm 2 mps 703 mmHg 92%
    12:00 -24°C° 0 mm 2 mps 704 mmHg 92%
    13:00 -23°C° 0 mm 2 mps 704 mmHg 91%
    14:00 -23°C° 0 mm 3 mps 704 mmHg 90%
    15:00 -23°C° 0 mm 2 mps 705 mmHg 91%
    16:00 -24°C° 0 mm 2 mps 705 mmHg 93%
    17:00 -25°C° 0 mm 2 mps 706 mmHg 94%
    18:00 -26°C° 0 mm 2 mps 706 mmHg 94%
    19:00 -24°C° 0 mm 1 mps 706 mmHg 94%
    20:00 -25°C° 0 mm 1 mps 707 mmHg 94%
    21:00 -25°C° 0 mm 1 mps 707 mmHg 93%
    22:00 -28°C° 0 mm 2 mps 708 mmHg 91%
    23:00 -28°C° 0 mm 2 mps 708 mmHg 90%

    Tomorrow, 24 February, Saturday

    Time Temperature Precipitation Wind Pressure Humidity
    00:00 -28°C° 0 mm 2 mps 708 mmHg 90%
    01:00 -28°C° 0 mm 2 mps 708 mmHg 89%
    02:00 -30°C° 0 mm 3 mps 708 mmHg 89%
    03:00 -30°C° 0 mm 3 mps 708 mmHg 89%
    04:00 -30°C° 0 mm 3 mps 708 mmHg 89%
    05:00 -30°C° 0 mm 3 mps 707 mmHg 90%
    06:00 -29°C° 0 mm 3 mps 707 mmHg 89%
    07:00 -29°C° 0 mm 3 mps 707 mmHg 87%
    08:00 -29°C° 0 mm 3 mps 707 mmHg 86%
    09:00 -27°C° 0 mm 4 mps 707 mmHg 84%
    10:00 -25°C° 0 mm 4 mps 707 mmHg 82%
    11:00 -23°C° 0 mm 4 mps 707 mmHg 81%
    12:00 -22°C° 0 mm 4 mps 706 mmHg 81%
    13:00 -20°C° 0 mm 4 mps 706 mmHg 81%
    14:00 -19°C° 0 mm 4 mps 705 mmHg 80%
    15:00 -18°C° 0 mm 3 mps 705 mmHg 83%
    16:00 -19°C° 0 mm 3 mps 704 mmHg 85%
    17:00 -19°C° 0 mm 2 mps 704 mmHg 87%
    18:00 -20°C° 0 mm 2 mps 704 mmHg 87%
    19:00 -21°C° 0 mm 2 mps 704 mmHg 88%
    20:00 -21°C° 0 mm 2 mps 704 mmHg 89%
    21:00 -21°C° 0 mm 2 mps 704 mmHg 89%
    22:00 -21°C° 0 mm 2 mps 703 mmHg 89%
    23:00 -23°C° 0 mm 2 mps 703 mmHg 89%

    Day after tomorrow, 25 February, Sunday

    Time Temperature Precipitation Wind Pressure Humidity
    00:00 -23°C° 0 mm 2 mps 703 mmHg 88%
    01:00 -23°C° 0 mm 2 mps 703 mmHg 88%
    02:00 -23°C° 0 mm 2 mps 703 mmHg 88%
    03:00 -23°C° 0 mm 2 mps 702 mmHg 87%
    04:00 -23°C° 0 mm 2 mps 702 mmHg 87%
    05:00 -23°C° 0 mm 2 mps 702 mmHg 86%
    06:00 -23°C° 0 mm 2 mps 702 mmHg 85%
    07:00 -23°C° 0 mm 2 mps 703 mmHg 84%
    08:00 -23°C° 0 mm 2 mps 703 mmHg 83%
    09:00 -18°C° 0 mm 1 mps 703 mmHg 81%
    10:00 -16°C° 0 mm 1 mps 703 mmHg 78%
    11:00 -15°C° 0 mm 1 mps 703 mmHg 76%
    12:00 -14°C° 0 mm 1 mps 703 mmHg 76%
    13:00 -13°C° 0 mm 1 mps 703 mmHg 75%
    14:00 -13°C° 0 mm 1 mps 703 mmHg 75%
    15:00 -14°C° 0 mm 1 mps 703 mmHg 78%
    16:00 -15°C° 0 mm 1 mps 703 mmHg 81%
    17:00 -16°C° 0 mm 1 mps 702 mmHg 83%
    18:00 -17°C° 0 mm 1 mps 703 mmHg 83%
    19:00 -20°C° 0 mm 2 mps 703 mmHg 82%
    20:00 -20°C° 0 mm 2 mps 703 mmHg 82%
    21:00 -21°C° 0 mm 2 mps 703 mmHg 81%
    22:00 -21°C° 0 mm 2 mps 703 mmHg 80%
    23:00 -21°C° 0 mm 2 mps 703 mmHg 79%

    26 February, Monday

    Time Temperature Precipitation Wind Pressure Humidity
    00:00 -21°C° 0 mm 2 mps 703 mmHg 79%
    01:00 -21°C° 0 mm 2 mps 703 mmHg 79%
    02:00 -21°C° 0 mm 2 mps 703 mmHg 79%
    03:00 -21°C° 0 mm 2 mps 703 mmHg 79%
    04:00 -22°C° 0 mm 3 mps 702 mmHg 79%
    05:00 -22°C° 0 mm 3 mps 702 mmHg 80%
    06:00 -21°C° 0 mm 3 mps 702 mmHg 80%
    07:00 -19°C° 0 mm 3 mps 702 mmHg 81%
    08:00 -19°C° 0 mm 3 mps 702 mmHg 82%
    09:00 -17°C° 0 mm 3 mps 702 mmHg 81%
    10:00 -16°C° 0 mm 3 mps 702 mmHg 81%
    11:00 -14°C° 0 mm 3 mps 702 mmHg 80%
    12:00 -14°C° 0 mm 3 mps 702 mmHg 81%
    13:00 -13°C° 0 mm 3 mps 701 mmHg 82%
    14:00 -13°C° 0 mm 3 mps 701 mmHg 83%
    15:00 -13°C° 0.1 mm 3 mps 701 mmHg 86%
    16:00 -14°C° 0.1 mm 3 mps 701 mmHg 89%
    17:00 -13°C° 0.1 mm 2 mps 701 mmHg 92%
    18:00 -14°C° 0.1 mm 2 mps 702 mmHg 92%
    19:00 -15°C° 0.1 mm 2 mps 702 mmHg 93%
    20:00 -16°C° 0.1 mm 2 mps 703 mmHg 93%
    21:00 -17°C° 0 mm 2 mps 703 mmHg 94%
    22:00 -18°C° 0 mm 2 mps 703 mmHg 94%
    23:00 -16°C° 0 mm 1 mps 703 mmHg 94%

    27 February, Tuesday

    Time Temperature Precipitation Wind Pressure Humidity
    00:00 -17°C° 0 mm 1 mps 704 mmHg 95%
    01:00 -17°C° 0 mm 1 mps 704 mmHg 95%
    02:00 -18°C° 0 mm 1 mps 704 mmHg 95%
    03:00 -19°C° 0 mm 1 mps 704 mmHg 96%
    04:00 -19°C° 0 mm 1 mps 704 mmHg 97%
    05:00 -20°C° 0 mm 1 mps 704 mmHg 98%
    06:00 -20°C° 0 mm 1 mps 704 mmHg 98%
    07:00 -20°C° 0 mm 1 mps 705 mmHg 98%
    08:00 -20°C° 0 mm 1 mps 705 mmHg 97%
    09:00 -19°C° 0 mm 1 mps 705 mmHg 95%
    10:00 -18°C° 0 mm 1 mps 705 mmHg 93%
    11:00 -18°C° 0 mm 2 mps 705 mmHg 91%
    12:00 -17°C° 0 mm 2 mps 704 mmHg 90%
    13:00 -17°C° 0 mm 2 mps 704 mmHg 89%
    14:00 -16°C° 0 mm 2 mps 704 mmHg 88%
    15:00 -15°C° 0 mm 1 mps 703 mmHg 90%
    16:00 -16°C° 0 mm 1 mps 703 mmHg 92%
    17:00 -17°C° 0 mm 1 mps 703 mmHg 93%
    18:00 -17°C° 0 mm 1 mps 703 mmHg 94%
    19:00 -20°C° 0 mm 2 mps 703 mmHg 95%
    20:00 -21°C° 0 mm 2 mps 703 mmHg 95%
    21:00 -21°C° 0 mm 2 mps 702 mmHg 94%
    22:00 -23°C° 0 mm 3 mps 702 mmHg 94%
    23:00 -23°C° 0 mm 3 mps 702 mmHg 93%

    28 February, Wednesday

    Time Temperature Precipitation Wind Pressure Humidity
    00:00 -23°C° 0 mm 3 mps 701 mmHg 92%
    01:00 -23°C° 0 mm 3 mps 701 mmHg 91%
    02:00 -23°C° 0 mm 3 mps 700 mmHg 90%
    03:00 -22°C° 0 mm 3 mps 700 mmHg 89%
    04:00 -22°C° 0 mm 3 mps 699 mmHg 88%
    05:00 -22°C° 0 mm 3 mps 699 mmHg 86%
    06:00 -21°C° 0 mm 3 mps 698 mmHg 87%
    07:00 -21°C° 0 mm 3 mps 698 mmHg 87%
    08:00 -19°C° 0 mm 3 mps 698 mmHg 88%
    09:00 -18°C° 0.1 mm 3 mps 698 mmHg 87%
    10:00 -17°C° 0.1 mm 4 mps 697 mmHg 87%
    11:00 -16°C° 0.1 mm 4 mps 697 mmHg 86%
    12:00 -15°C° 0.1 mm 4 mps 697 mmHg 86%
    13:00 -15°C° 0.1 mm 4 mps 696 mmHg 86%
    14:00 -15°C° 0.1 mm 4 mps 696 mmHg 86%
    15:00 -14°C° 0.1 mm 3 mps 696 mmHg 88%
    16:00 -15°C° 0.1 mm 3 mps 696 mmHg 90%
    17:00 -15°C° 0.1 mm 3 mps 696 mmHg 92%
    18:00 -16°C° 0.1 mm 3 mps 697 mmHg 93%
    19:00 -17°C° 0.1 mm 3 mps 697 mmHg 94%
    20:00 -17°C° 0.1 mm 2 mps 697 mmHg 95%
    21:00 -18°C° 0.1 mm 2 mps 697 mmHg 96%
    22:00 -19°C° 0.1 mm 2 mps 698 mmHg 96%
    23:00 -19°C° 0.1 mm 2 mps 698 mmHg 97%
    Show more